Find Starlink 34057

NORAD ID: 63814 Int'l Des: 2025-092 Owner: SPXS Country: US Constellation: starlink operational
LEOCIRCULAR

リアルタイム位置

3D地球を読み込み中...

Starlink 34057について

説明を読み込み中...

次回通過

Passes for default location (London). Set your location on the main map for personalized predictions.

高度履歴

Loading altitude history...

軌道要素

1 63814U 25092L 26126.52812418 .00011974 00000-0 44416-3 0 9992
2 63814 43.0039 205.6164 0001994 267.9097 92.1526 15.27562598 57467
Epoch: May 6, 2026 • Age: 19 hours

現在のステータス

高度 483.7 km
速度 7.63 km/s
衛星直下点 -7.22°S, 143.63°W
打ち上げ日 May 4, 2025
運用期間 1 years
タイプ internet

技術仕様

分類 Payload
質量 575.00 kg
乾燥質量 530.00 kg
総質量 575.00 kg
長さ 0.30 m
直径 4.10 m
スパン 29.00 m
形状 Box + pan
製造者 SPXS
バスタイプ Starlink V2MO
フェーズステータス In Orbit
所有者/国 SPXS/US

Most Searched